Location: Bridgewater
(44.3670°N, 64.5170°W)
Time: 18:15:15
(UTC-04:00)

Amateur Radio Satellites - All Passes

Search period start: 10 December 2016 17:45
Search period end: 11 December 2016 17:45
Location: Bridgewater, 44.3670°N, 64.5170°W

Satellite Date Start Highest point End Downlink Frequencies (MHz)
Time Altitude Azimuth
GOMX 1 10 Dec 17:46:45 17:51:19 50° 262° (W) 17:56:16 467.674
RS-15 10 Dec 17:52:04 18:02:05 31° 257° (WSW) 18:11:52 29.354- 29.394
CINEMA 3 10 Dec 18:12:55 18:17:31 38° 69° (ENE) 18:22:09 145.822/145.860
HO-68 10 Dec 18:17:08 18:23:48 44° 64° (ENE) 18:30:31 435.675
STARS 10 Dec 18:21:36 18:24:56 21° 296° (WNW) 18:28:16 437.465
CUTE-I 10 Dec 18:21:41 18:26:47 44° 261° (W) 18:31:55 437.470
Cosmos 2491 10 Dec 18:25:25 18:34:01 66° 267° (W) 18:42:36 435.465 / 435.565
NOAA 15 10 Dec 18:28:13 18:32:58 34° 263° (W) 18:37:45 137.62
LilacSat-2 10 Dec 18:29:47 18:32:56 24° 265° (W) 18:36:05 437.200
CUTE 1.7 + AOD 2 10 Dec 18:30:14 18:33:54 30° 69° (ENE) 18:37:35 437.475
AAUSAT CUBESAT 2 10 Dec 18:31:32 18:32:57 12° 61° (ENE) 18:34:22 437.432
UWE-3 10 Dec 18:32:22 18:33:23 11° 59° (ENE) 18:34:22 435.000/436.395/437.385
Cosmos 2504 10 Dec 18:43:01 18:50:35 37° 84° (E) 18:58:26 435.465 / 435.565
CANX-2 10 Dec 18:48:49 18:52:56 55° 73° (ENE) 18:57:03 2200.000
Cubesat XI-IV 10 Dec 18:50:13 18:54:40 26° 266° (W) 18:59:07 437.490
YUBILEINY 10 Dec 18:51:39 19:00:20 77° 95° (E) 19:09:06 435.215
CUBESAT XI-V 10 Dec 18:53:43 18:56:27 16° 299° (WNW) 18:59:10 437.345
ZACube-1 10 Dec 19:00:46 19:02:42 13° 61° (ENE) 19:04:37 437.345
SEEDS 10 Dec 19:03:33 19:07:32 46° 72° (ENE) 19:11:32 437.485
COMPASS 1 10 Dec 19:04:26 19:08:06 32° 70° (ENE) 19:11:47 437.405
FUNcube-1 10 Dec 19:05:21 19:07:21 13° 61° (ENE) 19:09:21 145.935
ISS 10 Dec 19:10:14 19:13:10 28° 14° (NNE) 19:16:06 145.825
DOVE 4 10 Dec 19:10:21 19:13:58 20° 270° (W) 19:17:43 437.250
NOAA 18 10 Dec 19:14:57 19:19:27 25° 266° (W) 19:23:58 137.9125
SO-50 10 Dec 19:15:29 19:20:14 74° 123° (ESE) 19:24:56 436.795
CUSAT 1 10 Dec 19:18:58 19:22:44 37° 77° (ENE) 19:27:32 437.405
PCSat 10 Dec 19:27:26 19:32:53 71° 57° (ENE) 19:38:17 145.827
Oscar 11 10 Dec 19:27:59 19:31:05 20° 65° (ENE) 19:34:13 145.826/435.025
CUBEBUG 2 10 Dec 19:32:55 19:37:35 62° 74° (ENE) 19:42:12 437.445
AIST 1 10 Dec 19:34:23 19:38:43 85° 282° (WNW) 19:43:07
STRAND 1 10 Dec 19:40:36 19:45:42 69° 102° (ESE) 19:50:46 437.568
CINEMA 3 10 Dec 19:50:27 19:54:42 28° 266° (W) 19:59:00 145.822/145.860
AAUSAT CUBESAT 2 10 Dec 20:03:45 20:07:50 72° 258° (WSW) 20:11:58 437.432
UWE-3 10 Dec 20:04:28 20:09:06 84° 78° (ENE) 20:13:41 435.000/436.395/437.385
HO-68 10 Dec 20:04:55 20:11:33 40° 262° (W) 20:18:15 435.675
CUTE 1.7 + AOD 2 10 Dec 20:06:15 20:09:44 25° 266° (W) 20:13:14 437.475
DELFI C3 10 Dec 20:17:58 20:21:01 22° 67° (ENE) 20:24:05 145.870
Cosmos 2491 10 Dec 20:25:50 20:29:02 12° 288° (WNW) 20:32:14 435.465 / 435.565
CANX-2 10 Dec 20:26:56 20:29:07 14° 270° (W) 20:31:20 2200.000
ZACube-1 10 Dec 20:33:52 20:38:24 78° 259° (W) 20:42:51 437.345
Cosmos 2504 10 Dec 20:35:20 20:43:38 54° 285° (WNW) 20:52:21 435.465 / 435.565
FUNcube-1 10 Dec 20:38:31 20:43:01 75° 258° (WSW) 20:47:27 145.935
COMPASS 1 10 Dec 20:40:25 20:43:41 23° 266° (W) 20:46:59 437.405
SEEDS 10 Dec 20:40:54 20:43:29 16° 269° (W) 20:46:04 437.485
ISS 10 Dec 20:46:37 20:49:56 77° 212° (SSW) 20:53:14 145.825
YUBILEINY 10 Dec 20:51:13 20:58:08 25° 297° (WNW) 21:05:07 435.215
DANDE 10 Dec 20:56:19 20:59:21 77° 263° (W) 21:03:14 436.750
SO-50 10 Dec 20:57:40 21:01:12 20° 322° (NW) 21:04:43 436.795
PRISM 10 Dec 21:00:07 21:03:50 30° 97° (E) 21:07:31 437.425
CUSAT 1 10 Dec 21:01:20 21:04:32 21° 266° (W) 21:08:23 437.405
Oscar 11 10 Dec 21:02:51 21:06:56 42° 262° (W) 21:11:03 145.826/435.025
CUBEBUG 2 10 Dec 21:11:47 21:14:35 15° 270° (W) 21:17:21 437.445
PCSat 10 Dec 21:12:09 21:15:41 18° 255° (WSW) 21:19:12 145.827
HUMSAT D 10 Dec 21:15:52 21:19:55 52° 73° (ENE) 21:23:58 437.325/437.525
STRAND 1 10 Dec 21:21:04 21:24:20 17° 300° (WNW) 21:27:36 437.568
UNISAT 6 10 Dec 21:33:08 21:35:59 17° 91° (E) 21:38:48 437.425
UWE-3 10 Dec 21:45:08 21:46:06 11° 272° (W) 21:47:04 435.000/436.395/437.385
DELFI C3 10 Dec 21:52:11 21:55:40 30° 264° (W) 21:59:11 145.870
TIGRISAT 10 Dec 22:00:41 22:04:33 30° 96° (E) 22:08:19 435.000
ANTELSAT 10 Dec 22:03:28 22:07:28 34° 97° (E) 22:11:22 437.575/2403.000
AISAT 10 Dec 22:05:01 22:07:15 14° 60° (ENE) 22:09:29 437.250
CUBEBUG 1 10 Dec 22:15:30 22:18:55 23° 65° (ENE) 22:22:22 437.445
ESTCUBE 1 10 Dec 22:18:43 22:22:51 38° 69° (ENE) 22:27:01 437.505/2401.250
ISS 10 Dec 22:25:04 22:25:54 11° 230° (SW) 22:26:44 145.825
SPROUT 10 Dec 22:34:29 22:37:10 16° 63° (ENE) 22:39:51 437.525
UKube-1 10 Dec 22:35:07 22:35:59 11° 58° (ENE) 22:36:51 .
PRISM 10 Dec 22:35:34 22:39:00 25° 293° (WNW) 22:42:26 437.425
Cosmos 2504 10 Dec 22:36:15 22:39:29 12° 310° (NW) 22:42:45 435.465 / 435.565
DX 1 10 Dec 22:36:48 22:39:14 15° 61° (ENE) 22:41:42 434.975-435.025
VELOX 1 10 Dec 22:39:44 22:43:28 27° 66° (ENE) 22:47:15 145.980
QB50P2 10 Dec 22:49:43 22:51:43 13° 90° (E) 22:53:42 145.880/145.840
POLYITAN 1 10 Dec 22:50:18 22:52:04 12° 89° (E) 22:53:48 437.675
HUMSAT D 10 Dec 22:53:34 22:55:50 14° 269° (W) 22:58:07 437.325/437.525
50 SAT 10 Dec 22:55:49 22:58:47 27° 69° (ENE) 23:01:48 437.505
DUCHIFAT 1 10 Dec 22:58:05 22:59:58 13° 90° (E) 23:01:49 145.980
QB50P1 10 Dec 23:00:48 23:03:28 16° 91° (E) 23:06:07 145.935-145.965
UNISAT 6 10 Dec 23:08:47 23:12:59 46° 289° (WNW) 23:17:04 437.425
Cosmos 2499 10 Dec 23:19:34 23:27:08 35° 83° (E) 23:34:50 435.465 / 435.565
POPSAT HIP 1 10 Dec 23:22:10 23:25:46 26° 95° (E) 23:29:19 437.405
PHONESAT 2.4 10 Dec 23:27:02 23:29:21 27° 169° (S) 23:31:41 2401.200-2431.200
JAS-2 10 Dec 23:29:59 23:35:07 52° 101° (E) 23:40:34 435.910
GONETS M04 10 Dec 23:31:21 23:38:59 36° 84° (E) 23:46:36
BUGSAT 1 10 Dec 23:33:34 23:35:00 11° 89° (E) 23:36:25 437.445
TIGRISAT 10 Dec 23:37:30 23:41:08 26° 294° (WNW) 23:44:42 435.000
TISAT 1 10 Dec 23:37:56 23:40:02 14° 61° (ENE) 23:42:07 437.305
AISAT 10 Dec 23:38:42 23:43:08 71° 258° (WSW) 23:47:36 437.250
ANTELSAT 10 Dec 23:40:32 23:44:00 23° 294° (WNW) 23:47:24 437.575/2403.000
CUBEBUG 1 10 Dec 23:50:55 23:54:58 38° 262° (W) 23:59:06 437.445
O/OREOS (USA 219) 10 Dec 23:56:14 23:59:55 24° 55° (NE) 00:03:35 437.305
ESTCUBE 1 10 Dec 23:56:18 23:59:47 22° 267° (W) 00:03:18 437.505/2401.250
UKube-1 11 Dec 00:06:59 00:11:19 90° 17° (NNE) 00:15:40 .
SPROUT 11 Dec 00:08:28 00:12:40 54° 260° (W) 00:16:55 437.525
DX 1 11 Dec 00:10:37 00:14:56 62° 259° (WSW) 00:19:18 434.975-435.025
NANOSAT C BR1 11 Dec 00:12:26 00:16:41 90° 4° (N) 00:20:53 145.865
VELOX 1 11 Dec 00:15:55 00:19:50 31° 264° (W) 00:23:48 145.980
QB50P2 11 Dec 00:23:43 00:27:54 59° 287° (WNW) 00:32:03 145.880/145.840
POLYITAN 1 11 Dec 00:24:05 00:28:17 62° 286° (WNW) 00:32:25 437.675
Oscar 19 11 Dec 00:25:41 00:27:46 12° 88° (E) 00:29:50 437.125/150
SWISSCUBE 11 Dec 00:29:25 00:31:32 13° 58° (ENE) 00:33:39 437.505
50 SAT 11 Dec 00:29:30 00:32:05 19° 266° (W) 00:34:42 437.505
DUCHIFAT 1 11 Dec 00:31:53 00:36:03 60° 286° (WNW) 00:40:09 145.980
BEESAT 11 Dec 00:32:59 00:35:00 13° 58° (ENE) 00:37:00 436.000
QB50P1 11 Dec 00:35:25 00:39:30 47° 288° (WNW) 00:43:32 145.935-145.965
POPSAT HIP 1 11 Dec 00:57:51 01:01:31 29° 292° (WNW) 01:05:08 437.405
AO-85 11 Dec 00:58:46 01:03:36 63° 122° (ESE) 01:08:06 145.980
PHONESAT 2.4 11 Dec 01:01:47 01:04:13 32° 185° (S) 01:06:37 2401.200-2431.200
ITUPSAT 1 11 Dec 01:02:19 01:06:01 23° 64° (ENE) 01:09:43 437.325
Gurwin Techsat 1B 11 Dec 01:04:11 01:07:12 15° 89° (E) 01:10:12 435.225
BUGSAT 1 11 Dec 01:06:40 01:10:49 65° 285° (WNW) 01:14:53 437.445
TISAT 1 11 Dec 01:10:55 01:15:08 66° 258° (WSW) 01:19:23 437.305
Cosmos 2499 11 Dec 01:11:14 01:19:47 59° 284° (WNW) 01:28:36 435.465 / 435.565
AUBIESAT-1 11 Dec 01:15:16 01:19:10 33° 62° (ENE) 01:23:14 437.475
JAS-2 11 Dec 01:16:01 01:19:56 22° 297° (WNW) 01:24:01 435.910
GONETS M04 11 Dec 01:26:59 01:35:27 54° 285° (WNW) 01:43:57
M-CUBED/EXP-1 PRIME 11 Dec 01:31:49 01:36:01 58° 67° (ENE) 01:40:32 437.505
O/OREOS (USA 219) 11 Dec 01:35:18 01:39:26 38° 254° (WSW) 01:43:33 437.305
Oscar 19 11 Dec 02:02:31 02:07:45 87° 285° (WNW) 02:12:57 437.125/150
SWISSCUBE 11 Dec 02:03:52 02:08:38 85° 255° (WSW) 02:13:26 437.505
SO-50 11 Dec 02:05:51 02:09:03 18° 36° (NE) 02:12:11 436.795
BEESAT 11 Dec 02:07:17 02:12:04 88° 255° (WSW) 02:16:52 436.000
KKS-1 11 Dec 02:17:55 02:20:15 14° 60° (ENE) 02:22:36 437.445
MOZHAYETS 4 11 Dec 02:25:25 02:29:34 35° 69° (ENE) 02:33:44
PHONESAT 2.4 11 Dec 02:37:18 02:38:55 15° 202° (SSW) 02:40:34 2401.200-2431.200
ITUPSAT 1 11 Dec 02:39:01 02:43:34 44° 261° (W) 02:48:09 437.325
AO-85 11 Dec 02:40:43 02:44:22 22° 319° (NW) 02:47:50 145.980
Gurwin Techsat 1B 11 Dec 02:42:23 02:47:43 74° 286° (WNW) 02:53:00 435.225
ITAMSAT 1 11 Dec 02:43:21 02:47:45 27° 95° (E) 02:52:07 435.822/435.867
AUBIESAT-1 11 Dec 02:49:52 02:53:33 28° 261° (W) 02:57:26 437.475
M-CUBED/EXP-1 PRIME 11 Dec 03:08:18 03:10:54 16° 265° (W) 03:13:36 437.505
Cosmos 2499 11 Dec 03:11:04 03:15:09 14° 308° (NW) 03:19:15 435.465 / 435.565
AO-7 11 Dec 03:29:57 03:37:55 45° 100° (E) 03:45:50 29.400- 29.500
GONETS M04 11 Dec 03:32:15 03:34:44 11° 310° (NW) 03:37:13
STARS 11 Dec 03:42:29 03:46:42 45° 70° (ENE) 03:50:57 437.465
Oscar 19 11 Dec 03:43:52 03:46:17 13° 303° (WNW) 03:48:42 437.125/150
SO-50 11 Dec 03:45:32 03:50:05 81° 237° (WSW) 03:54:33 436.795
BEESAT 3 11 Dec 03:45:59 03:49:44 49° 120° (ESE) 03:53:33 437.485
KKS-1 11 Dec 03:51:47 03:56:15 70° 258° (WSW) 04:00:45 437.445
MOZHAYETS 4 11 Dec 04:03:01 04:06:48 25° 266° (W) 04:10:34
CUBESAT XI-V 11 Dec 04:19:32 04:24:06 77° 76° (ENE) 04:28:44 437.345
ITAMSAT 1 11 Dec 04:22:30 04:27:19 40° 292° (WNW) 04:32:07 435.822/435.867
Gurwin Techsat 1B 11 Dec 04:24:54 04:26:44 12° 305° (NW) 04:28:35 435.225
BEESAT 2 11 Dec 04:27:01 04:30:54 62° 122° (ESE) 04:34:51 435.950
Cosmos 2504 11 Dec 04:34:36 04:39:28 16° 54° (NE) 04:44:12 435.465 / 435.565
HORYU 2 11 Dec 04:55:46 04:59:11 21° 94° (E) 05:02:34 437.375
YUBILEINY 11 Dec 04:59:56 05:08:14 42° 71° (ENE) 05:16:28 435.215
BRITE-PL 11 Dec 05:01:01 05:06:17 42° 97° (E) 05:11:40 437.365/2234.400
STARS 11 Dec 05:20:07 05:23:16 19° 267° (W) 05:26:26 437.465
STRAND 1 11 Dec 05:21:23 05:24:34 17° 59° (ENE) 05:27:46 437.568
AO-7 11 Dec 05:22:50 05:30:40 47° 300° (WNW) 05:38:31 29.400- 29.500
BEESAT 3 11 Dec 05:24:38 05:27:37 20° 319° (NW) 05:30:38 437.485
Cubesat XI-IV 11 Dec 05:26:11 05:29:14 15° 89° (E) 05:32:15 437.490
DOVE 4 11 Dec 05:29:57 05:32:52 15° 87° (E) 05:35:42 437.250
Cosmos 2491 11 Dec 05:33:08 05:40:28 31° 83° (E) 05:47:47 435.465 / 435.565
AIST 1 11 Dec 05:39:58 05:43:47 28° 73° (ENE) 05:47:34
GOMX 1 11 Dec 05:46:20 05:51:41 48° 98° (E) 05:56:55 467.674
NOAA 18 11 Dec 05:54:39 05:58:18 18° 91° (E) 06:01:54 137.9125
CUBESAT XI-V 11 Dec 06:00:30 06:02:03 11° 272° (W) 06:03:37 437.345
LilacSat-2 11 Dec 06:00:51 06:04:12 30° 96° (E) 06:07:32 437.200
RS-15 11 Dec 06:03:24 06:14:13 45° 109° (ESE) 06:25:27 29.354- 29.394
BEESAT 2 11 Dec 06:06:18 06:09:04 18° 320° (NW) 06:11:53 435.950
AIST 2 11 Dec 06:07:19 06:10:12 19° 112° (ESE) 06:13:07 435.215
Cosmos 2504 11 Dec 06:26:05 06:34:51 68° 78° (ENE) 06:43:00 435.465 / 435.565
HORYU 2 11 Dec 06:31:45 06:35:52 39° 291° (WNW) 06:39:57 437.375
CUTE-I 11 Dec 06:36:40 06:41:59 65° 102° (ESE) 06:47:14 437.470
BRITE-PL 11 Dec 06:39:46 06:44:34 31° 294° (WNW) 06:49:28 437.365/2234.400
NOAA 15 11 Dec 06:40:52 06:46:11 78° 104° (ESE) 06:51:29 137.62
YUBILEINY 11 Dec 06:56:49 07:05:06 47° 272° (W) 07:13:23 435.215
STRAND 1 11 Dec 06:58:03 07:03:09 72° 256° (WSW) 07:08:18 437.568
Cubesat XI-IV 11 Dec 07:04:32 07:09:52 74° 288° (WNW) 07:15:10 437.490
DOVE 4 11 Dec 07:05:52 07:11:08 75° 286° (WNW) 07:16:12 437.250
AIST 1 11 Dec 07:17:34 07:21:19 28° 271° (W) 07:25:02
AO-7 11 Dec 07:18:19 07:21:22 12° 322° (NW) 07:24:26 29.400- 29.500
GOMX 1 11 Dec 07:24:55 07:29:26 27° 296° (WNW) 07:33:55 467.674
CUBEBUG 2 11 Dec 07:25:11 07:26:00 10° 87° (E) 07:26:47 437.445
Cosmos 2491 11 Dec 07:28:05 07:36:45 61° 283° (WNW) 07:45:24 435.465 / 435.565
HO-68 11 Dec 07:30:11 07:36:51 38° 97° (E) 07:43:28 435.675
NOAA 18 11 Dec 07:33:57 07:39:28 68° 288° (WNW) 07:44:55 137.9125
LilacSat-2 11 Dec 07:35:29 07:38:20 21° 293° (WNW) 07:41:10 437.200
CINEMA 3 11 Dec 07:42:55 07:47:39 70° 101° (E) 07:52:09 145.822/145.860
AIST 2 11 Dec 07:44:21 07:48:20 48° 310° (NW) 07:52:24 435.215
AAUSAT CUBESAT 2 11 Dec 07:45:19 07:47:52 16° 91° (E) 07:50:23 437.432
CUTE 1.7 + AOD 2 11 Dec 07:48:29 07:52:35 47° 99° (E) 07:56:40 437.475
AO-85 11 Dec 07:50:02 07:51:57 13° 33° (NNE) 07:53:49 145.980
PRISM 11 Dec 07:51:03 07:54:31 27° 67° (ENE) 07:57:59 437.425
UWE-3 11 Dec 07:54:09 07:56:25 14° 90° (E) 07:58:40 435.000/436.395/437.385
CANX-2 11 Dec 08:07:39 08:11:54 90° 60° (ENE) 08:16:09 2200.000
RS-15 11 Dec 08:14:30 08:26:18 64° 313° (NW) 08:38:36 29.354- 29.394
CUTE-I 11 Dec 08:17:50 08:21:30 19° 300° (WNW) 08:25:11 437.470
COMPASS 1 11 Dec 08:20:20 08:24:23 48° 99° (E) 08:28:25 437.405
Cosmos 2504 11 Dec 08:20:30 08:27:26 28° 280° (W) 08:34:03 435.465 / 435.565
SEEDS 11 Dec 08:20:56 08:25:08 74° 101° (E) 08:29:21 437.485
ZACube-1 11 Dec 08:21:42 08:24:28 17° 91° (E) 08:27:12 437.345
NOAA 15 11 Dec 08:22:06 08:25:20 17° 302° (WNW) 08:28:32 137.62
CUSAT 1 11 Dec 08:25:42 08:27:48 20° 95° (E) 08:29:48 437.405
FUNcube-1 11 Dec 08:25:58 08:28:47 17° 92° (E) 08:31:33 145.935
UNISAT 6 11 Dec 08:33:10 08:36:37 21° 65° (ENE) 08:40:02 437.425
DOVE 4 11 Dec 08:46:06 08:47:50 12° 304° (NW) 08:49:34 437.250
Cubesat XI-IV 11 Dec 08:47:10 08:49:01 12° 305° (NW) 08:50:53 437.490
Oscar 11 11 Dec 08:48:20 08:52:08 30° 96° (E) 08:55:55 145.826/435.025
CUBEBUG 2 11 Dec 08:58:51 09:03:12 73° 284° (WNW) 09:07:23 437.445
TIGRISAT 11 Dec 09:00:23 09:04:35 35° 69° (ENE) 09:08:46 435.000
ANTELSAT 11 Dec 09:03:16 09:07:36 39° 70° (ENE) 09:11:52 437.575/2403.000
Cosmos 2499 11 Dec 09:10:23 09:14:12 13° 52° (NE) 09:17:55 435.465 / 435.565
NOAA 18 11 Dec 09:17:20 09:19:06 12° 307° (NW) 09:20:51 137.9125
HO-68 11 Dec 09:17:52 09:24:39 46° 296° (WNW) 09:31:24 435.675
AAUSAT CUBESAT 2 11 Dec 09:19:35 09:23:35 47° 288° (WNW) 09:27:34 437.432
CINEMA 3 11 Dec 09:21:33 09:24:09 15° 300° (WNW) 09:26:41 145.822/145.860
CUTE 1.7 + AOD 2 11 Dec 09:25:17 09:28:04 17° 296° (WNW) 09:30:51 437.475
PRISM 11 Dec 09:26:18 09:29:45 26° 264° (W) 09:33:15 437.425
DELFI C3 11 Dec 09:27:29 09:30:57 28° 96° (E) 09:34:23 145.870
AIST 2 11 Dec 09:27:41 09:27:50 10° 331° (NNW) 09:28:00 435.215
AO-85 11 Dec 09:29:04 09:33:05 81° 55° (NE) 09:36:57 145.980
UWE-3 11 Dec 09:29:06 09:33:16 53° 287° (WNW) 09:37:19 435.000/436.395/437.385
Cosmos 2491 11 Dec 09:31:49 09:35:45 13° 307° (NW) 09:39:41 435.465 / 435.565
GONETS M04 11 Dec 09:39:16 09:45:14 20° 59° (ENE) 09:51:11
QB50P2 11 Dec 09:44:11 09:46:19 14° 61° (ENE) 09:48:28 145.880/145.840
JAS-2 11 Dec 09:44:40 09:49:41 29° 65° (ENE) 09:54:19 435.910
POLYITAN 1 11 Dec 09:44:42 09:46:42 13° 61° (ENE) 09:48:41 437.675
DUCHIFAT 1 11 Dec 09:51:49 09:53:47 13° 61° (ENE) 09:55:47 145.980
QB50P1 11 Dec 09:55:00 09:57:40 16° 63° (ENE) 10:00:21 145.935-145.965
COMPASS 1 11 Dec 09:56:54 09:59:34 17° 296° (WNW) 10:02:14 437.405
ZACube-1 11 Dec 09:57:00 10:01:00 43° 289° (WNW) 10:04:55 437.345
SEEDS 11 Dec 09:58:43 10:00:16 12° 299° (WNW) 10:01:47 437.485
FUNcube-1 11 Dec 10:01:17 10:05:14 42° 289° (WNW) 10:09:08 145.935
DANDE 11 Dec 10:07:19 10:11:10 65° 282° (WNW) 10:14:12 436.750
UNISAT 6 11 Dec 10:08:32 10:13:02 46° 261° (W) 10:17:28 437.425
PCSat 11 Dec 10:10:38 10:15:47 46° 114° (ESE) 10:20:57 145.827
POPSAT HIP 1 11 Dec 10:16:07 10:19:39 26° 67° (ENE) 10:23:11 437.405
Oscar 11 11 Dec 10:24:33 10:28:11 27° 292° (WNW) 10:31:48 145.826/435.025
BUGSAT 1 11 Dec 10:25:10 10:26:43 12° 60° (ENE) 10:28:17 437.445
RS-15 11 Dec 10:31:27 10:41:54 31° 344° (NNW) 10:52:33 29.354- 29.394
HUMSAT D 11 Dec 10:32:47 10:36:53 80° 101° (E) 10:40:58 437.325/437.525
TIGRISAT 11 Dec 10:37:24 10:41:19 26° 265° (W) 10:45:12 435.000
ANTELSAT 11 Dec 10:40:41 10:44:25 23° 266° (W) 10:48:06 437.575/2403.000
Cosmos 2499 11 Dec 11:01:04 11:09:31 61° 77° (ENE) 11:17:17 435.465 / 435.565
DELFI C3 11 Dec 11:02:22 11:05:39 25° 292° (WNW) 11:08:56 145.870
NANOSAT C BR1 11 Dec 11:05:34 11:09:49 81° 77° (ENE) 11:14:07 145.865
BEESAT 2 11 Dec 11:07:19 11:08:40 11° 33° (NNE) 11:10:01 435.950
HO-68 11 Dec 11:09:52 11:10:36 10° 317° (NW) 11:11:19 435.675
QB50P2 11 Dec 11:17:20 11:21:35 66° 258° (WSW) 11:25:52 145.880/145.840
POLYITAN 1 11 Dec 11:17:40 11:21:57 70° 259° (W) 11:26:14 437.675
DUCHIFAT 1 11 Dec 11:24:41 11:28:55 69° 258° (WSW) 11:33:11 145.980
AISAT 11 Dec 11:27:55 11:31:10 19° 93° (E) 11:34:24 437.250
JAS-2 11 Dec 11:28:46 11:34:38 45° 261° (W) 11:39:57 435.910
QB50P1 11 Dec 11:28:51 11:33:02 53° 260° (W) 11:37:15 145.935-145.965
GONETS M04 11 Dec 11:34:43 11:43:30 84° 82° (E) 11:52:17
CUBEBUG 1 11 Dec 11:37:33 11:41:37 34° 97° (E) 11:45:38 437.445
Oscar 19 11 Dec 11:43:16 11:47:12 23° 62° (ENE) 11:51:10 437.125/150
ESTCUBE 1 11 Dec 11:45:40 11:50:11 68° 101° (ESE) 11:54:42 437.505/2401.250
POPSAT HIP 1 11 Dec 11:51:29 11:55:18 31° 264° (W) 11:59:09 437.405
SPROUT 11 Dec 11:53:05 11:56:29 22° 94° (E) 11:59:50 437.525
50 SAT 11 Dec 11:53:07 11:56:06 24° 96° (E) 11:59:03 437.505
UKube-1 11 Dec 11:54:04 11:56:08 13° 90° (E) 11:58:12 .
PCSat 11 Dec 11:54:32 11:59:20 31° 313° (NW) 12:04:10 145.827
BUGSAT 1 11 Dec 11:57:14 12:01:28 78° 257° (WSW) 12:05:45 437.445
DX 1 11 Dec 11:57:50 12:01:03 20° 93° (E) 12:04:16 434.975-435.025
BEESAT 3 11 Dec 12:01:18 12:05:12 50° 51° (NE) 12:09:04 437.485
VELOX 1 11 Dec 12:03:39 12:07:56 42° 99° (E) 12:12:10 145.980
HUMSAT D 11 Dec 12:11:12 12:11:52 10° 300° (WNW) 12:12:33 437.325/437.525
Gurwin Techsat 1B 11 Dec 12:26:15 12:30:47 29° 65° (ENE) 12:35:20 435.225
AO-7 11 Dec 12:42:05 12:47:18 19° 45° (NE) 12:52:31 29.400- 29.500
BEESAT 2 11 Dec 12:43:15 12:47:17 62° 53° (NE) 12:51:16 435.950
RS-15 11 Dec 12:48:36 12:59:22 33° 19° (NNE) 13:10:02 29.354- 29.394
TISAT 1 11 Dec 12:54:09 12:56:52 17° 92° (E) 12:59:34 437.305
Cosmos 2499 11 Dec 12:55:02 13:02:00 30° 278° (W) 13:08:34 435.465 / 435.565
AISAT 11 Dec 13:03:34 13:07:50 44° 290° (WNW) 13:12:04 437.250
CUBEBUG 1 11 Dec 13:14:06 13:17:44 25° 294° (WNW) 13:21:21 437.445
Oscar 19 11 Dec 13:21:12 13:26:11 51° 260° (W) 13:31:13 437.125/150
ESTCUBE 1 11 Dec 13:23:59 13:26:27 15° 299° (WNW) 13:28:56 437.505/2401.250
50 SAT 11 Dec 13:26:27 13:29:17 22° 292° (WNW) 13:32:07 437.505
UKube-1 11 Dec 13:28:16 13:32:34 62° 287° (WNW) 13:36:51 .
SPROUT 11 Dec 13:28:34 13:32:29 35° 291° (WNW) 13:36:21 437.525
ISS 11 Dec 13:29:15 13:30:54 13° 132° (SE) 13:32:33 145.825
GONETS M04 11 Dec 13:33:09 13:39:11 21° 282° (WNW) 13:45:16
DX 1 11 Dec 13:33:16 13:37:25 42° 290° (WNW) 13:41:32 434.975-435.025
BEESAT 3 11 Dec 13:39:52 13:42:27 17° 249° (WSW) 13:45:03 437.485
VELOX 1 11 Dec 13:40:44 13:44:06 21° 296° (WNW) 13:47:28 145.980
ITAMSAT 1 11 Dec 14:02:38 14:07:39 50° 70° (ENE) 14:12:40 435.822/435.867
SWISSCUBE 11 Dec 14:03:04 14:06:40 21° 93° (E) 14:10:16 437.505
Gurwin Techsat 1B 11 Dec 14:05:36 14:10:34 40° 262° (W) 14:15:35 435.225
BEESAT 11 Dec 14:06:30 14:10:03 21° 93° (E) 14:13:34 436.000
O/OREOS (USA 219) 11 Dec 14:10:54 14:14:09 19° 101° (E) 14:17:23 437.305
BEESAT 2 11 Dec 14:22:32 14:24:35 14° 250° (WSW) 14:26:37 435.950
AIST 2 11 Dec 14:25:57 14:29:28 25° 43° (NE) 14:32:59 435.215
AUBIESAT-1 11 Dec 14:27:00 14:30:11 19° 96° (E) 14:33:17 437.475
TISAT 1 11 Dec 14:28:42 14:32:45 46° 289° (WNW) 14:36:45 437.305
AO-7 11 Dec 14:30:24 14:38:37 69° 67° (ENE) 14:46:54 29.400- 29.500
ITUPSAT 1 11 Dec 14:37:36 14:42:05 40° 98° (E) 14:46:33 437.325
M-CUBED/EXP-1 PRIME 11 Dec 14:43:48 14:48:01 35° 101° (E) 14:52:02 437.505
RS-15 11 Dec 15:02:17 15:14:42 69° 49° (NE) 15:26:44 29.354- 29.394
ISS 11 Dec 15:03:40 15:06:57 88° 327° (NNW) 15:10:16 145.825
SWISSCUBE 11 Dec 15:40:09 15:44:40 45° 290° (WNW) 15:49:11 437.505
Cosmos 2491 11 Dec 15:41:07 15:46:24 17° 56° (ENE) 15:51:41 435.465 / 435.565
KKS-1 11 Dec 15:41:51 15:45:07 20° 93° (E) 15:48:22 437.445
ITAMSAT 1 11 Dec 15:43:21 15:47:22 22° 267° (W) 15:51:24 435.822/435.867
BEESAT 11 Dec 15:43:30 15:48:03 46° 290° (WNW) 15:52:34 436.000
O/OREOS (USA 219) 11 Dec 15:48:50 15:53:12 46° 298° (WNW) 15:57:35 437.305
HORYU 2 11 Dec 15:55:10 15:58:51 26° 66° (ENE) 16:02:32 437.375
MOZHAYETS 4 11 Dec 15:55:10 15:59:44 66° 101° (E) 16:04:16
AUBIESAT-1 11 Dec 16:00:28 16:04:51 48° 294° (WNW) 16:09:00 437.475
AIST 2 11 Dec 16:04:05 16:08:08 43° 241° (WSW) 16:12:08 435.215
BRITE-PL 11 Dec 16:13:46 16:18:04 48° 71° (ENE) 16:22:45 437.365/2234.400
CUBESAT XI-V 11 Dec 16:15:21 16:18:27 17° 91° (E) 16:21:32 437.345
ITUPSAT 1 11 Dec 16:15:52 16:19:43 25° 296° (WNW) 16:23:32 437.325
M-CUBED/EXP-1 PRIME 11 Dec 16:18:23 16:22:20 28° 299° (WNW) 16:26:08 437.505
CUTE-I 11 Dec 16:22:19 16:26:00 19° 60° (ENE) 16:29:39 437.470
NOAA 15 11 Dec 16:24:44 16:28:35 21° 61° (ENE) 16:32:27 137.62
AO-7 11 Dec 16:25:08 16:31:59 28° 266° (W) 16:38:56 29.400- 29.500
DOVE 4 11 Dec 16:36:31 16:39:56 19° 61° (ENE) 16:43:28 437.250
ISS 11 Dec 16:40:56 16:43:47 26° 348° (NNW) 16:46:39 145.825
LilacSat-2 11 Dec 16:44:42 16:47:33 20° 67° (ENE) 16:50:24 437.200
Cubesat XI-IV 11 Dec 16:49:06 16:53:44 31° 65° (ENE) 16:58:24 437.490
GOMX 1 11 Dec 16:55:45 17:00:24 55° 72° (ENE) 17:05:26 467.674
STARS 11 Dec 17:06:08 17:10:33 69° 102° (ESE) 17:14:55 437.465
CINEMA 3 11 Dec 17:12:17 17:13:44 11° 57° (ENE) 17:15:11 145.822/145.860
PCSat 11 Dec 17:14:44 17:17:19 13° 32° (NNE) 17:19:52 145.827
RS-15 11 Dec 17:15:31 17:26:32 41° 253° (WSW) 17:37:14 29.354- 29.394
KKS-1 11 Dec 17:17:37 17:21:53 43° 290° (WNW) 17:26:06 437.445
NOAA 18 11 Dec 17:21:52 17:27:00 40° 66° (ENE) 17:32:09 137.9125
HORYU 2 11 Dec 17:31:11 17:35:14 34° 262° (W) 17:39:20 437.375
MOZHAYETS 4 11 Dec 17:33:49 17:36:22 15° 299° (WNW) 17:38:54
